[[{"header":{"parameterUnit":"m.s-1","parameterCategory":1,"la1":30.2991,"la2":30.254,"lo1":-89.0895,"lo2":-89.0444,"dy":0.0017,"dx":0.0017,"nx":28,"ny":28,"refTime":"2025-06-18T21:00:00:Z","depth":0,"parameterNumber":2,"parameterNumberName":"U-component_of_WINDS"},"data":[0,0,0,0,0,0,0,0,0,0,0,0,0,0,0,0,0,0,0,0,0,0,0,0,0,0,0,0,0,0,0,0,0,0,0,0,0,0,0,0,0,0,0,0,0,0,0,0,0,0,0,0,0,0,0,0,0,0,1.1948,1.1949,0,1.201,1.2011,1.2012,1.2004,1.2003,1.2002,1.2001,1.2065,1.2068,1.2071,0,0,0,0,0,0,0,0,0,0,0,0,0,1.1822,1.1824,1.1948,1.1949,1.195,1.201,1.2011,1.2012,1.2004,1.2003,1.2001,1.2,1.2065,1.2068,1.2071,0,0,0,0,0,0,0,0,0,0,0,0,0,1.188,1.1825,1.1948,1.1953,1.1954,1.201,1.2011,1.2012,1.2004,1.2003,1.2001,1.2,1.2064,1.2067,1.2071,1.2127,0,0,1.2084,1.2085,0,0,0,0,0,0,0,0,1.1876,1.1884,1.1951,1.1953,1.1954,1.1998,1.199,1.2051,1.2005,1.1985,1.2001,1.1999,1.2044,1.205,1.2065,1.213,1.2133,1.2084,1.2086,1.2088,1.2089,0,0,0,0,0,0,0,1.1872,1.1881,1.1973,1.1952,1.1954,1.1952,1.1958,1.2002,1.2023,1.1987,1.1986,1.1994,1.2045,1.2061,1.2066,1.2134,1.2084,1.2087,1.209,1.2091,1.2245,1.2247,0,0,0,0,0,0,1.1867,1.1878,1.1971,1.1975,1.1911,1.1955,1.1963,1.1985,1.2022,1.2026,1.1995,1.1993,1.2055,1.2062,1.2068,1.2134,1.2088,1.2092,1.2094,1.2244,1.2246,1.2247,0,0,0,0,0,0,1.1864,1.1875,1.1968,1.1926,1.1938,1.1959,1.1985,1.1987,1.2004,1.2028,1.2032,1.2008,1.2054,1.2063,1.2112,1.2136,1.2094,1.2097,1.2242,1.2244,1.2247,1.2267,0,0,0,0,0,0,1.1861,1.1874,1.1896,1.1927,1.194,1.2011,1.1986,1.199,1.201,1.2009,1.2041,1.2045,1.2053,1.2106,1.2116,1.2141,1.21,1.2239,1.2243,1.2246,1.2264,1.227,1.2275,0,0,0,0,0,1.1856,1.19,1.1897,1.1908,1.1968,1.2012,1.202,1.2028,1.2012,1.2034,1.2049,1.2044,1.2132,1.2111,1.2122,1.2149,1.2238,1.2242,1.2245,1.2262,1.2269,1.2275,0,0,0,0,0,0,1.1871,1.1904,1.1901,1.1956,1.1981,1.2011,1.2038,1.2035,1.2066,1.2063,1.2072,1.208,1.2129,1.2144,1.212,1.2204,1.2183,1.2189,1.2192,1.2199,1.2204,1.2198,1.2104,0,0,0,0,0,1.1881,1.1915,1.1941,1.1987,1.2,1.2017,1.2037,1.2041,1.2067,1.2078,1.2097,1.2124,1.2157,1.2179,1.2211,1.2267,1.2273,1.2291,1.2296,1.23,1.2305,1.2334,1.2342,1.226,1.226,1.226,0,0,1.1902,1.1923,1.1944,1.1991,1.2011,1.2045,1.2026,1.2063,1.2088,1.2084,1.2131,1.2146,1.2176,1.2228,1.2252,1.2242,1.2329,1.2305,1.2308,1.2311,1.2339,1.2346,1.2353,1.2262,1.2262,1.2262,0,0,1.1956,1.1976,1.2016,1.2036,1.2067,1.2077,1.2087,1.2117,1.2126,1.2173,1.217,1.22,1.2258,1.2279,1.2297,1.2358,1.2354,1.2368,1.2396,1.2424,1.243,1.2436,1.2456,1.2463,1.2373,1.2373,1.2374,0,1.1977,1.2028,1.2037,1.2074,1.2094,1.2091,1.213,1.215,1.2189,1.2203,1.2192,1.2263,1.2283,1.2339,1.2354,1.2369,1.2379,1.2364,1.2429,1.2434,1.244,1.2459,1.2467,1.2375,1.2375,1.2375,1.2374,0,1.2052,1.2088,1.2116,1.2154,1.2177,1.2216,1.2229,1.2252,1.2254,1.2265,1.2313,1.2337,1.2373,1.2387,1.2389,1.2443,1.2436,1.2427,1.2406,1.2449,1.2467,1.2475,1.2377,1.2376,1.2376,1.2376,0,0,1.2118,1.2158,1.2169,1.2185,1.2218,1.2245,1.2283,1.2318,1.2337,1.2364,1.2395,1.2444,1.2435,1.2456,1.2461,1.2485,1.253,1.2473,1.2474,1.2481,1.2589,1.2594,1.2603,1.2528,1.2529,1.2531,1.2586,0,1.2174,1.224,1.2248,1.2307,1.234,1.2337,1.237,1.2393,1.2405,1.2434,1.2448,1.2481,1.2468,1.248,1.2505,1.2519,1.2552,1.2516,1.2556,1.2558,1.2547,1.2613,1.2619,1.267,1.2593,1.2594,1.2595,0,1.2248,1.2276,1.2339,1.2366,1.238,1.2409,1.2441,1.2469,1.2495,1.2502,1.2525,1.2526,1.2565,1.2543,1.2595,1.2571,1.2588,1.2598,1.26,1.2603,1.2578,1.2616,1.2687,1.2694,1.2607,1.2606,1.2605,0,1.2287,1.2341,1.2385,1.2399,1.2433,1.2453,1.2468,1.2493,1.2513,1.2541,1.2554,1.2586,1.2604,1.2629,1.2639,1.2622,1.269,1.267,1.2696,1.2696,1.271,1.2708,1.2782,1.2723,1.2723,1.2723,1.2723,0,1.2348,1.2385,1.2403,1.2429,1.2471,1.248,1.2521,1.2535,1.2557,1.2586,1.2587,1.2614,1.2626,1.2655,1.2663,1.2704,1.2713,1.2719,1.272,1.2718,1.2717,1.2728,1.2725,1.2725,1.2724,1.2724,1.2724,0,1.2398,1.2411,1.2458,1.2486,1.2494,1.2523,1.2547,1.2572,1.2584,1.262,1.263,1.2648,1.2682,1.2694,1.2736,1.2742,1.2789,1.2788,1.278,1.278,1.2805,1.2802,1.2888,1.2899,1.2834,1.2834,1.2835,0,1.2435,1.2464,1.2494,1.2514,1.2529,1.256,1.2581,1.259,1.2611,1.2643,1.2665,1.2698,1.2726,1.278,1.2797,1.2829,1.2828,1.2856,1.2833,1.2829,1.2826,1.2824,1.2826,1.286,1.286,1.2861,1.2861,0,1.2499,1.2504,1.2533,1.2564,1.2588,1.2614,1.2638,1.2654,1.2667,1.2691,1.2725,1.2746,1.2788,1.2821,1.2854,1.2869,1.2867,1.2869,1.2876,1.2873,1.2866,1.2869,1.279,1.2866,1.2866,1.2865,1.2865,1.2865,1.2542,1.2567,1.2592,1.2625,1.2644,1.2667,1.2691,1.2706,1.2735,1.2769,1.2774,1.281,1.2835,1.2878,1.2895,1.2923,1.2916,1.2927,1.293,1.2932,1.2933,1.2863,1.293,1.2929,1.2929,1.2929,1.2929,0,1.2605,1.2621,1.265,1.2684,1.2709,1.2706,1.2732,1.2753,1.2785,1.2809,1.2836,1.2875,1.2907,1.2926,1.2958,1.2977,1.2977,1.2985,1.2983,1.2986,1.2939,1.2928,1.2984,1.2984,1.2984,1.2984,1.2984,1.2984,1.264,1.2681,1.2689,1.274,1.2756,1.2791,1.2807,1.2827,1.2846,1.2889,1.2916,1.2928,1.2949,1.2983,1.3012,1.3016,1.3027,1.3036,1.304,1.2995,1.2989,1.2984,1.2974,1.3039,1.3039,1.3085,1.3085,1.3085]},{"header":{"parameterUnit":"m.s-1","parameterCategory":1,"la1":30.2991,"la2":30.254,"lo1":-89.0895,"lo2":-89.0444,"dy":0.0017,"dx":0.0017,"nx":28,"ny":28,"refTime":"2025-06-18T21:00:00:Z","depth":0,"parameterNumber":3,"parameterNumberName":"V-component_of_WINDS"},"data":[0,0,0,0,0,0,0,0,0,0,0,0,0,0,0,0,0,0,0,0,0,0,0,0,0,0,0,0,0,0,0,0,0,0,0,0,0,0,0,0,0,0,0,0,0,0,0,0,0,0,0,0,0,0,0,0,0,0,5.7525,5.7524,0,5.7458,5.7457,5.7457,5.7338,5.7336,5.7334,5.7332,5.7266,5.7267,5.7267,0,0,0,0,0,0,0,0,0,0,0,0,0,5.7553,5.7553,5.7525,5.7524,5.7523,5.7458,5.7457,5.7456,5.7339,5.7336,5.7333,5.7331,5.7266,5.7266,5.7267,0,0,0,0,0,0,0,0,0,0,0,0,0,5.7519,5.7553,5.7525,5.7457,5.745,5.7459,5.7457,5.7456,5.7339,5.7336,5.7333,5.733,5.7266,5.7266,5.7267,5.7338,0,0,5.7269,5.7269,0,0,0,0,0,0,0,0,5.7521,5.7518,5.7467,5.7461,5.7454,5.7403,5.7443,5.7417,5.734,5.7381,5.7332,5.7328,5.7315,5.7311,5.7306,5.7335,5.7332,5.7269,5.7269,5.7269,5.7269,0,0,0,0,0,0,0,5.7524,5.752,5.7498,5.7467,5.7458,5.743,5.7422,5.7437,5.7368,5.7378,5.7369,5.7362,5.731,5.7306,5.7304,5.7331,5.7269,5.7269,5.7269,5.727,5.7414,5.7417,0,0,0,0,0,0,5.7535,5.7523,5.7501,5.7496,5.748,5.7432,5.7423,5.7423,5.7367,5.7356,5.7365,5.7357,5.7307,5.7303,5.7301,5.7379,5.7269,5.727,5.727,5.7411,5.7415,5.7419,0,0,0,0,0,0,5.7537,5.7535,5.7503,5.7507,5.7501,5.7435,5.7436,5.7423,5.7418,5.7358,5.7345,5.7373,5.7304,5.73,5.7329,5.7375,5.727,5.727,5.7406,5.7412,5.7417,5.7538,0,0,0,0,0,0,5.7538,5.7536,5.7561,5.7509,5.7501,5.7532,5.7439,5.7424,5.7419,5.7408,5.7362,5.7351,5.7301,5.7329,5.733,5.7374,5.7271,5.7402,5.7409,5.7415,5.7529,5.7547,5.7561,0,0,0,0,0,5.7539,5.7599,5.7563,5.7561,5.7532,5.7535,5.7531,5.7471,5.7424,5.7449,5.741,5.7353,5.7371,5.7333,5.7333,5.7378,5.7399,5.7407,5.7415,5.7522,5.7543,5.7561,0,0,0,0,0,0,5.7659,5.759,5.755,5.7594,5.7571,5.7515,5.7545,5.7495,5.7486,5.7476,5.7402,5.7393,5.7432,5.7408,5.7367,5.7444,5.7376,5.7384,5.7458,5.7477,5.7493,5.7497,5.7271,0,0,0,0,0,5.769,5.7698,5.7638,5.7683,5.7673,5.7612,5.7611,5.7567,5.754,5.753,5.7493,5.7471,5.7471,5.7473,5.747,5.7526,5.7514,5.7557,5.7573,5.7586,5.7594,5.7622,5.764,5.7445,5.7445,5.7445,0,0,5.7755,5.7719,5.7728,5.7706,5.7683,5.7693,5.7604,5.7619,5.7626,5.7533,5.7557,5.753,5.75,5.7543,5.756,5.7524,5.7646,5.7597,5.7608,5.7608,5.7632,5.765,5.7667,5.745,5.7449,5.7448,0,0,5.7879,5.7852,5.7886,5.7865,5.7831,5.779,5.7799,5.775,5.7728,5.7752,5.7682,5.769,5.7692,5.7673,5.7664,5.7782,5.7728,5.7783,5.7866,5.7894,5.7909,5.7922,5.7963,5.7979,5.7791,5.7791,5.7791,0,5.7964,5.7976,5.791,5.7929,5.7921,5.7837,5.7871,5.7854,5.7822,5.7819,5.7779,5.778,5.7754,5.7791,5.782,5.7815,5.7823,5.7787,5.7912,5.7924,5.7936,5.7974,5.799,5.7798,5.7797,5.7797,5.7796,0,5.8082,5.8091,5.8123,5.8093,5.8089,5.8116,5.8055,5.8059,5.8016,5.7979,5.8005,5.797,5.7959,5.7965,5.7923,5.7996,5.7975,5.7925,5.7855,5.7962,5.7997,5.8012,5.7808,5.7805,5.7803,5.7802,0,0,5.8277,5.8211,5.8224,5.8209,5.8166,5.8172,5.8196,5.8184,5.8188,5.817,5.8187,5.8191,5.8145,5.8135,5.809,5.8115,5.8209,5.8061,5.8059,5.8089,5.8288,5.8325,5.8343,5.8174,5.8177,5.8179,5.829,0,5.8391,5.8425,5.8368,5.8416,5.8424,5.8345,5.8365,5.8342,5.8309,5.8311,5.8275,5.8278,5.8217,5.821,5.8231,5.8194,5.8248,5.8185,5.819,5.8191,5.8199,5.8361,5.84,5.8507,5.8303,5.8305,5.8307,0,5.8527,5.8514,5.8563,5.8517,5.8518,5.8538,5.8522,5.8526,5.8498,5.8472,5.8461,5.8408,5.8428,5.8362,5.8389,5.8347,5.8346,5.8328,5.8331,5.8328,5.8255,5.8362,5.8539,5.8555,5.8328,5.8326,5.8325,0,5.8663,5.8659,5.8687,5.8677,5.8625,5.864,5.8619,5.8588,5.8584,5.8571,5.8568,5.8559,5.8553,5.8547,5.8493,5.845,5.8527,5.8456,5.8506,5.8508,5.8525,5.8524,5.8703,5.8526,5.8526,5.8526,5.8526,0,5.8795,5.8828,5.8747,5.8765,5.88,5.8734,5.8771,5.8742,5.8715,5.8726,5.8658,5.867,5.8599,5.8603,5.8562,5.859,5.8588,5.8568,5.8557,5.8574,5.8576,5.8571,5.8562,5.853,5.8529,5.8528,5.8528,0,5.8953,5.89,5.8926,5.8874,5.8862,5.889,5.8846,5.8861,5.8824,5.8839,5.8839,5.8781,5.8783,5.8729,5.872,5.8692,5.8739,5.8714,5.8748,5.874,5.8793,5.8788,5.8974,5.8995,5.8806,5.8808,5.8809,0,5.904,5.9063,5.9014,5.9016,5.8998,5.9003,5.8999,5.8936,5.8935,5.8905,5.8924,5.892,5.8913,5.892,5.8878,5.8871,5.8845,5.8911,5.8844,5.886,5.8845,5.8844,5.8846,5.8925,5.8927,5.8929,5.8931,0,5.9199,5.9172,5.9169,5.9157,5.9154,5.9142,5.9125,5.9131,5.9062,5.9065,5.9065,5.9061,5.9051,5.9049,5.9034,5.9013,5.8961,5.8952,5.8963,5.8981,5.8999,5.8989,5.8785,5.8948,5.8946,5.8945,5.8944,5.8943,5.9323,5.934,5.9308,5.9307,5.9288,5.9274,5.9285,5.925,5.9249,5.9236,5.92,5.9207,5.9179,5.9153,5.9137,5.9142,5.911,5.9126,5.913,5.9135,5.9144,5.8999,5.914,5.9139,5.9138,5.9138,5.9138,0,5.9478,5.9454,5.9454,5.9432,5.9432,5.9383,5.9362,5.9365,5.9372,5.935,5.9345,5.9346,5.9343,5.9301,5.9294,5.9306,5.9282,5.9306,5.9304,5.93,5.9174,5.9165,5.9325,5.9325,5.9325,5.9325,5.9325,5.9325,5.9558,5.9585,5.9554,5.9571,5.9546,5.9552,5.9545,5.9532,5.9514,5.9519,5.9516,5.9488,5.9458,5.9448,5.9444,5.9431,5.9431,5.9464,5.9443,5.9327,5.9309,5.9291,5.9282,5.9464,5.9465,5.9568,5.9569,5.957]}]]